Location: Brown Observing Site
(43.4354°N, 116.3366°W)
Time: 06:33:51
(UTC-06:00)

OTV 5 (USA 277) - Visible Passes

Search period start: 19 October 2019 00:00
Search period end: 29 October 2019 00:00
Orbit: 310 x 324 km, 54.5° (Epoch: 17 October)

Date Brightness Start Highest point End Pass type
(mag) Time Alt. Az. Time Alt. Az. Time Alt. Az.
19 Oct ? 06:24:58 57° NNE 06:25:02 57° NE 06:27:44 10° ESE visible
20 Oct ? 06:39:38 48° SW 06:39:38 48° SW 06:42:13 10° SE visible
21 Oct ? 06:54:26 17° SW 06:54:26 17° SW 06:55:54 10° S visible
27 Oct ? 19:57:12 10° S 19:58:38 17° SSE 19:58:38 17° SSE visible
28 Oct ? 20:10:54 10° SSW 20:13:13 45° SSE 20:13:13 45° SSE visible
